Satellite: NCUBE2
Catalog number: 28897
Epoch time:      07066.67730821
Element set:    0196
Inclination:      098.1425 deg
RA of node:       325.4199 deg
Eccentricity:    0.0018261
Arg of perigee:   070.8711 deg
Mean anomaly:     289.4471 deg
Mean motion:   14.59681697 rev/day
Decay rate:       1.42e-06 rev/day^2
Epoch rev:           06456
Checksum:              337

Satellite: NMARS
Catalog number: 29662
Epoch time:      07067.59840374
Element set:     105
Inclination:      051.6333 deg
RA of node:       258.1353 deg
Eccentricity:    0.0010252
Arg of perigee:   298.7716 deg
Mean anomaly:     061.2265 deg
Mean motion:   15.93054128 rev/day
Decay rate:    1.32423e-03 rev/day^2
Epoch rev:            1221
Checksum:              276

Satellite: FCAL
Catalog number: 29667
Epoch time:      07067.85081515
Element set:      75
Inclination:      051.6322 deg
RA of node:       259.0655 deg
Eccentricity:    0.0015355
Arg of perigee:   314.1503 deg
Mean anomaly:     045.8237 deg
Mean motion:   15.84463157 rev/day
Decay rate:     1.9674e-04 rev/day^2
Epoch rev:            1207
Checksum:              299

/EX






More information about the Keps mailing list